Regional Weather Roundup
Issued by NWS

Home | Current Version | Previous Version | Text Only | Print | Product List | Glossary Off
Versions: 1 2 3 4 5 6 7 8 9 10 11 12 13 14 15 16 17 18 19 20 21 22 23 24 25 26 27 28 29 30 31 32 33 34 35 36 37 38 39 40 41 42 43 44 45 46 47 48 49 50

255
ASUS43 KLOT 161503
RWRIL

ILLINOIS REGIONAL WEATHER ROUNDUP
NATIONAL WEATHER SERVICE CHICAGO/ROMEOVILLE IL
1000 AM CDT WED AUG 16 2017

NOTE: "FAIR" INDICATES FEW OR NO CLOUDS BELOW 12,000 FEET WITH NO
SIGNIFICANT WEATHER AND/OR OBSTRUCTIONS TO VISIBILITY.

* THESE STATIONS ARE NOT UNDER NWS QUALITY CONTROL. THEY ALSO MAY NOT
  REPORT WEATHER SUCH AS PRECIPITATION OR FOG.

ILZ001-002-007-009-015-016-024-161600-
NORTHWEST ILLINOIS

CITY           SKY/WX    TMP DP  RH WIND       PRES   REMARKS
MOLINE         SUNNY     77  68  73 E9        29.93F
STERLING*      SUNNY     77  69  76 E9        29.96F
SAVANNA*       SUNNY     76  67  72 E8        29.95F
$$

ILZ003-004-008-010-011-017-018-161600-
NORTH CENTRAL ILLINOIS

CITY           SKY/WX    TMP DP  RH WIND       PRES   REMARKS
ROCKFORD       MOSUNNY   78  66  66 SE7       29.99F HX  80
FREEPORT*      SUNNY     72  65  77 E10       30.00S
ROCHELLE*      SUNNY     76  68  77 SE7       30.00S
PERU*          SUNNY     75  67  77 E5        29.98S
$$

ILZ005-006-012>014-019>023-161600-
NORTHEAST ILLINOIS

CITY           SKY/WX    TMP DP  RH WIND       PRES   REMARKS
CHICAGO-OHARE  SUNNY     79  65  62 E8        29.99F HX  81
CHICAGO-MIDWAY SUNNY     79  67  66 E8        29.99F HX  81
AURORA         SUNNY     79  69  71 SE10      30.00S HX  81
LANSING*       SUNNY     78  66  65 E5        30.00F HX  80
JOLIET*        SUNNY     79  71  75 SE6       29.99S HX  82
WAUKEGAN       MOSUNNY   73  68  84 E6        30.01S
DUPAGE AIRPORT SUNNY     78  69  73 E7        29.99F HX  80
KANKAKEE*      SUNNY     78  71  80 SE5       30.01S HX  80
WHEELING       SUNNY     77  67  71 E7        30.01F
MORRIS*        SUNNY     76  69  79 SE6       29.98S
NORTHERLY ISL    N/A     76  65  68 NE7         N/A
$$

LMZ740>746-161600-
SOUTHERN LAKE MICHIGAN

STATION/POSITION SKY/WX   TEMP    WIND        PRES    VSBY  WAVE
                          AIR SEA DIR/SP/G                  HT/PER
                          (F)     (DEG/KT/KT) (MB)    (MI)  (FT/S)
SOUTHERN BUOY              70 71   70/  4/  6 1016.7          1/ 4
WILMETTE HARBOR            73 73   80/  6/  8   N/A           2/ 4
HARRISON CRIB              73     100/  7/  8   N/A
CALUMET HARBOR             73      70/  7/  9 1015.5F
BURNS HARBOR               77     300/  2/  3 1016.6S
MICHIGAN CITY              78     140/  5/  6   N/A
MICHIGAN CITY 6N           74 74   70/  2/  4   N/A           2/ 4
ST. JOSEPH                 75 74   CALM  /  2 1016.1F         1/ 4
$$

ILZ025>027-034>036-040-047-049-050-058-095>099-161600-
WEST-CENTRAL ILLINOIS

CITY           SKY/WX    TMP DP  RH WIND       PRES   REMARKS
QUINCY         CLOUDY    76  72  87 SE9       29.92F
GALESBURG*     SUNNY     78  71  80 E6        29.95S
MACOMB*        CLOUDY    75  72  90 SE6       29.96F
JACKSONVILLE*  CLOUDY    77  72  84 S6        29.95S
PITTSFIELD*    CLOUDY    76  75  97 SE6       29.95F
$$

ILZ028>032-037-038-041>044-048-051>054-059>061-161600-
CENTRAL ILLINOIS

CITY           SKY/WX    TMP DP  RH WIND       PRES   REMARKS
PONTIAC        SUNNY     79  75  90 CALM      29.99S HX  82
BLOOMINGTON    CLOUDY    80  74  81 SE10      30.00S HX  85
DECATUR        PTSUNNY   80  73  79 SE10      29.99S HX  84
PEORIA         MOSUNNY   80  73  79 SE8       29.96S HX  84
LACON*         SUNNY     78  71  80 SE6       29.96S HX  80
LINCOLN*       MOSUNNY   81  74  79 SE9       29.97S HX  87
SPRINGFIELD    CLOUDY    81  73  76 SE12      29.96R HX  86
TAYLORVILLE    CLOUDY    75  73  92 SE8       29.98S
$$

ILZ033-039-045-046-055>057-062-063-161600-
EAST-CENTRAL ILLINOIS

CITY           SKY/WX    TMP DP  RH WIND       PRES   REMARKS
CHAMPAIGN      MOSUNNY   81  72  74 SE7       30.01R HX  85
RANTOUL*       MOSUNNY   82  74  78 SE8       30.00S HX  88
MATTOON        CLOUDY    78  74  87 SE9       29.99S HX  81
PARIS*         CLOUDY    80  74  80 SE6       30.02S HX  85
$$

ILZ079-100>102-161600-
SOUTHWEST ILLINOIS

CITY           SKY/WX    TMP DP  RH WIND       PRES   REMARKS
ALTON          CLOUDY    75  73  94 S12       29.97S
BELLEVILLE     CLOUDY    77  74  88 SW7       29.98S
CAHOKIA*       LGT RAIN  78  74  87 S7        29.96F HX  81
SPARTA*        CLOUDY    77  74  91 S7        30.00R
$$

ILZ064>066-069>071-074>076-080>082-084>086-088>090-092>094-161600-
SOUTH-CENTRAL ILLINOIS

CITY           SKY/WX    TMP DP  RH WIND       PRES   REMARKS
CARBONDALE     CLOUDY    78  75  90 SE7       29.99S HX  81
CAIRO*         CLOUDY    77  75  93 S6        30.01R
EFFINGHAM*     CLOUDY    78  74  88 E8        30.01S HX  81
MARION         PTSUNNY   79  79 100 SE9       30.01R HX  83
MT. VERNON     CLOUDY    78  73  84 S8        30.01R HX  81
CENTRALIA*     CLOUDY    78  74  87 S9        29.99S HX  80
SALEM*         CLOUDY    78  72  83 S6        29.99F HX  80
METROPOLIS*    PTSUNNY   82  76  84 S3        30.01S HX  89
$$

ILZ067-068-072-073-078-083-087-091-161600-
SOUTHEAST ILLINOIS

CITY           SKY/WX    TMP DP  RH WIND       PRES   REMARKS
LAWRENCEVILLE  CLOUDY    81  74  79 S6        30.02R HX  86
FLORA*         CLOUDY    81  75  82 SE8       30.01R HX  87
FAIRFIELD*     CLOUDY    79  74  85 SE5       30.01R HX  82
HARRISBURG*    CLOUDY    76  75  97 SE3       30.02S
CARMI*         CLOUDY    76  75  96 S9        30.02R
$$

ABBREVIATIONS USED IN REMARKS
   TC - TEMPERATURE IN CELSIUS
  WCI - WIND CHILL INDEX
   HX - HEAT INDEX
  VSB - VISIBILITY
$$





USA.gov is the U.S. government's official web portal to all federal, state and local government web resources and services.